Regional Weather Roundup
Issued by NWS

Home | Current Version | Previous Version | Text Only | Print | Product List | Glossary On
Versions: 1 2 3 4 5 6 7 8 9 10 11 12 13 14 15 16 17 18 19 20 21 22 23 24 25 26 27 28 29 30 31 32 33 34 35 36 37 38 39 40 41 42 43 44 45 46 47 48 49 50
000
ASUS43 KLOT 261506
RWRIL

ILLINOIS REGIONAL WEATHER ROUNDUP
NATIONAL WEATHER SERVICE CHICAGO/ROMEOVILLE IL
900 AM CST MON JAN 26 2015

NOTE: "FAIR" INDICATES FEW OR NO CLOUDS BELOW 12,000 FEET WITH NO
SIGNIFICANT WEATHER AND/OR OBSTRUCTIONS TO VISIBILITY.

* THESE STATIONS ARE NOT UNDER NWS QUALITY CONTROL. THEY ALSO MAY NOT
  REPORT WEATHER SUCH AS PRECIPITATION OR FOG.

ILZ001-002-007-009-015-016-024-261600-
NORTHWEST ILLINOIS

CITY           SKY/WX    TMP DP  RH WIND       PRES   REMARKS
MOLINE         LGT SNOW  21  16  81 S6        29.93F WCI  13
STERLING*      CLOUDY    19  16  86 CALM      29.94F
SAVANNA*       LGT SNOW  20  16  85 SE6       29.94F WCI  12
$$

ILZ003-004-008-010-011-017-018-261600-
NORTH CENTRAL ILLINOIS

CITY           SKY/WX    TMP DP  RH WIND       PRES   REMARKS
ROCKFORD       CLOUDY    17  12  80 S5        29.97S WCI  10
FREEPORT*      CLOUDY    18  13  83 SE5       29.95F WCI  11
ROCHELLE*      CLOUDY    17  13  84 CALM      29.96F
DE KALB*       PTSUNNY   18  13  84 CALM      29.95S
PERU*          CLOUDY    20  16  84 CALM      29.98F
$$

ILZ005-006-012>014-019>023-261600-
NORTHEAST ILLINOIS

CITY           SKY/WX    TMP DP  RH WIND       PRES   REMARKS
CHICAGO-OHARE  PTSUNNY   20  15  81 W3        29.95F
CHICAGO-MIDWAY PTSUNNY   23  18  81 S5        29.96F WCI  17
AURORA         PTSUNNY   19  13  77 CALM      29.96F
LANSING*       SUNNY     18  13  79 S3        29.97F
JOLIET*        SUNNY     19  15  82 CALM      29.98S
WAUKEGAN       MOSUNNY   21  15  78 W3        29.94F
DUPAGE AIRPORT PTSUNNY   17  13  84 CALM      29.95F
KANKAKEE*      MOSUNNY   22  18  86 CALM      29.99S
WHEELING       SUNNY     21  13  71 CALM      29.97F
MORRIS*        MOSUNNY   18  15  88 CALM      29.97F
ROMEOVILLE*    MOSUNNY   20  16  85 CALM      29.97S
NORTHERLY ISL    N/A     22  15  75 S9          N/A  WCI  12
$$

LMZ740>746-261600-
SOUTHERN LAKE MICHIGAN

STATION/POSITION SKY/WX   TEMP    WIND        PRES    VSBY  WAVE
                          AIR SEA DIR/SP/G                  HT/PER
                          (F)     (DEG/KT/KT) (MB)    (MI)  (FT/S)
WAUKEGAN HARBOR            20      CALM  /  5   N/A
HARRISON CRIB              23     170/  4/  7   N/A
BURNHAM HARBOR             22     230/  5/  9   N/A
CALUMET HARBOR             20     190/  5/  6   N/A
MICHIGAN CITY              16     130/  2/  3   N/A
$$

ILZ025>027-034>036-040-047-049-050-058-095>099-261600-
WEST-CENTRAL ILLINOIS

CITY           SKY/WX    TMP DP  RH WIND       PRES   REMARKS
QUINCY         CLOUDY    28  23  81 S8        30.00F WCI  20
GALESBURG*     CLOUDY    22  19  87 S8        29.95F WCI  13
MACOMB*        FLURRIES  26  23  89 S8        29.98F WCI  17
JACKSONVILLE*  CLOUDY    28  24  84 SW5       30.03S WCI  23
PITTSFIELD*    CLOUDY    29  25  84 S5        30.03F WCI  24
$$

ILZ028>032-037-038-041>044-048-051>054-059>061-261600-
CENTRAL ILLINOIS

CITY           SKY/WX    TMP DP  RH WIND       PRES   REMARKS
PONTIAC        MOSUNNY   22  19  89 SW5       29.98F WCI  15
BLOOMINGTON    PTSUNNY   22  19  88 W6        29.99R WCI  15
DECATUR        CLOUDY    24  22  91 W8        30.00S WCI  15
PEORIA         CLOUDY    23  16  74 S5        29.99F WCI  17
LACON*         CLOUDY    20  15  81 S3        29.98F
LINCOLN*       PTSUNNY   25  19  78 W3        30.02F
SPRINGFIELD    CLOUDY    25  18  74 W8        30.03S WCI  16
TAYLORVILLE    CLOUDY    25  19  80 W10       30.03R WCI  15
$$

ILZ033-039-045-046-055>057-062-063-261600-
EAST-CENTRAL ILLINOIS

CITY           SKY/WX    TMP DP  RH WIND       PRES   REMARKS
CHAMPAIGN      CLOUDY    25  20  81 W8        29.98S WCI  16
DANVILLE*      CLOUDY    24  19  81 N7        29.94F WCI  16
RANTOUL*       PTSUNNY   26  23  87 NW7       29.98R WCI  18
MATTOON          N/A     26  21  81 W13       30.00R WCI  15
PARIS*         CLOUDY    27  23  85 NE7       29.99S WCI  19
$$

ILZ079-100>102-261600-
SOUTHWEST ILLINOIS

CITY           SKY/WX    TMP DP  RH WIND       PRES   REMARKS
ALTON          CLOUDY    28  23  80 W6        30.06S WCI  22
BELLEVILLE     CLOUDY    29  25  87 NW7       30.06R WCI  22
CAHOKIA*       CLOUDY    30  23  75 W7        30.07R WCI  23
SPARTA*        CLOUDY    28  23  84 W6        30.06R WCI  21
$$

ILZ064>066-069>071-074>076-080>082-084>086-088>090-092>094-261600-
SOUTH-CENTRAL ILLINOIS

CITY           SKY/WX    TMP DP  RH WIND       PRES   REMARKS
CARBONDALE     SUNNY     29  22  75 W10       30.07S WCI  20
CAIRO*         PTSUNNY   34  27  76 NW9       30.08R WCI  26
EFFINGHAM*     CLOUDY    27  20  76 W10       30.04R WCI  17
MARION         PTSUNNY   30  23  74 NW14      30.08R WCI  20
MT. VERNON     PTSUNNY   27  18  69 NW5       30.05R WCI  21
CENTRALIA*     MOSUNNY   27  20  76 NW9       30.05R WCI  17
SALEM*         PTSUNNY   28  21  78 W8        30.05R WCI  19
METROPOLIS*    CLOUDY    31  26  82 NW7       30.06R WCI  24
$$

ILZ067-068-072-073-078-083-087-091-261600-
SOUTHEAST ILLINOIS

CITY           SKY/WX    TMP DP  RH WIND       PRES   REMARKS
LAWRENCEVILLE  CLOUDY    30  24  78 NW8       30.01R WCI  22
FLORA*         CLOUDY    27  23  83 W12       30.03S WCI  17
FAIRFIELD*     CLOUDY    28  23  81 W3        30.03R
HARRISBURG*    CLOUDY    29  24  82 W12       30.06S WCI  19
ROBINSON*      CLOUDY    29  25  83 NW3       30.01S
CARMI*         CLOUDY    30  28  93 NW10      30.03R WCI  21
$$

ABBREVIATIONS USED IN REMARKS
   TC - TEMPERATURE IN CELSIUS
  WCI - WIND CHILL INDEX
   HX - HEAT INDEX
  VSB - VISIBILITY
$$




USA.gov is the U.S. government's official web portal to all federal, state and local government web resources and services.